Regional Weather Roundup
Issued by NWS Boston, MA

Current Version | Previous Version | Text Only | Print | Product List | Glossary Off
Versions: 1 2 3 4 5 6 7 8 9 10 11 12 13 14 15 16 17 18 19 20 21 22 23 24 25 26 27 28 29 30 31 32 33 34 35 36 37 38 39 40 41 42 43 44 45 46 47 48 49 50
000 ASUS41 KBOX 241410 RWRBOX REGIONAL WEATHER ROUNDUP NATIONAL WEATHER SERVICE TAUNTON MA 1000 AM EDT MON APR 24 2017 NOTE: "FAIR" INDICATES FEW OR NO CLOUDS BELOW 12,000 FEET WITH NO SIGNIFICANT WEATHER AND/OR OBSTRUCTIONS TO VISIBILITY. MAZALL-241500- EASTERN MASSACHUSETTS CITY SKY/WX TMP DP RH WIND PRES REMARKS BOSTON PTSUNNY 58 42 55 SE5 30.17R BEVERLY MOSUNNY 61 41 47 CALM 30.16R LAWRENCE MOSUNNY 61 40 45 CALM 30.18R BEDFORD SUNNY 60 39 45 CALM 30.16R BLUE HILL N/A 59 36 42 W3 30.16R NORWOOD SUNNY 62 40 44 W3 30.16S MARSHFIELD CLOUDY 61 41 48 CALM 30.17S PLYMOUTH SUNNY 59 39 47 SW6 30.18S TAUNTON MOSUNNY 60 40 47 S7 30.18S NEW BEDFORD SUNNY 57 42 57 SW7 30.18F $$ MAZALL-241500- CAPE COD AND THE ISLANDS CITY SKY/WX TMP DP RH WIND PRES REMARKS FALMOUTH SUNNY 55 39 54 MISG 30.20S HYANNIS SUNNY 52 45 77 SW8 30.19R CHATHAM PTSUNNY 52 46 80 SW9G20 30.21S PROVINCETOWN SUNNY 53 43 68 S13 30.19S NANTUCKET MOSUNNY 46 42 86 S8 30.21F MARTHAS VNYRD SUNNY 53 44 71 S5 30.21R $$ MAZALL-241500- CENTRAL AND WESTERN MASSACHUSETTS CITY SKY/WX TMP DP RH WIND PRES REMARKS WORCESTER MOSUNNY 63 32 31 VRB3 30.16S FITCHBURG SUNNY 66 39 37 CALM 30.17R ORANGE CLOUDY 55 41 59 CALM 30.18R SPRINGFIELD PTSUNNY 55 41 60 CALM 30.17S WESTFIELD MOSUNNY 57 42 57 CALM 30.18S NORTH ADAMS MOSUNNY 56 39 53 CALM 30.17R PITTSFIELD CLOUDY 57 38 48 CALM 30.15S $$ RIZALL-241500- RHODE ISLAND CITY SKY/WX TMP DP RH WIND PRES REMARKS PROVIDENCE PTSUNNY 55 46 71 S8 30.19S NEWPORT SUNNY 53 45 74 S6 30.19S BLOCK ISLAND CLOUDY 52 42 69 S6 30.20F SMITHFIELD MOSUNNY 61 39 44 CALM 30.17F WESTERLY MOSUNNY 56 43 61 VRB6 30.20S $$ CTZALL-241500- CONNECTICUT CITY SKY/WX TMP DP RH WIND PRES REMARKS BRADLEY INTL CLOUDY 56 42 59 CALM 30.19R HARTFORD PTSUNNY 56 44 64 S3 30.18S BRIDGEPORT CLOUDY 51 46 83 E3 30.19S DANBURY CLOUDY 53 45 74 N3 30.19R GROTON PTSUNNY 49 44 83 S6 30.20R NEW HAVEN PTSUNNY 50 47 89 CALM 30.19F CHESTER FAIR 55 43 62 CALM 30.18F MERIDEN CLOUDY 55 44 66 S6 30.19S WILLIMANTIC MOSUNNY 58 43 57 VRB3 30.19S OXFORD PTSUNNY 54 41 62 CALM 30.20R $$ MEZ002-015-021-024-NHZ003-005-008-011-012-014-VTZ005-008-241500- NORTHERN NEW ENGLAND CITY SKY/WX TMP DP RH WIND PRES REMARKS PORTLAND ME MOSUNNY 54 38 54 SE8 30.17R BANGOR ME MOSUNNY 52 35 52 NW8 30.18S CONCORD NH SUNNY 60 35 39 VRB3 30.16S MANCHESTER NH CLOUDY 61 36 39 NE5 30.15S NASHUA NH CLOUDY 60 39 45 CALM 30.17R PORTSMOUTH NH PTSUNNY 61 36 38 NE3 30.15S JAFFREY NH MOSUNNY 60 41 49 CALM 30.17R KEENE NH MOSUNNY 54 40 59 CALM 30.18S BURLINGTON VT CLOUDY 40 28 62 N10 30.26R MT. WASHINGTON MOSUNNY 32 27 80 W48G55 N/A WCI 15 $$ NYZ052-076-241500- EASTERN NEW YORK CITY SKY/WX TMP DP RH WIND PRES REMARKS ALBANY PTSUNNY 57 41 55 N6 30.20R NEW YORK CITY CLOUDY 55 44 66 NE6 30.18R $$ ANZALL-241500- MARINE OBSERVATIONS STATION/POSITION TIME TEMP WIND PRES VSBY WAVE AIR SEA DIR/SP/G HT/PER (UTC) (F) (DEG/KT/KT) (MB) (MI) (FT/S) BOSTON BUOY 1250 48 45 210/ 4/ 4 1020.4 3/ 9 BUZZARDS BAY 1300 46 210/ 7/ 7 1023.1R NANTUCKET SOUND 1350 49 1022.7R 1/ 3 MASS BAY-STELLWA 1304 47 44 210/ 6/ 6 1020.6R 2/11 ISLE OF SHOALS 1300 46 200/ 7/ 8 1021.0R S OF BLOCK IS 1355 47 N/A 2/11 $$ ......................KEY......................... SKY/WX - SKY CONDITION/PRESENT WEATHER TMP - TEMPERATURE IN FAHRENHEIT DWPT - DEWPOINT IN FAHRENHEIT RH - RELATIVE HUMIDITY IN PERCENT WIND - DIRECTION AND SPEED IN MPH PRES - MEAN SEA LEVEL PRESSURE IN INCHES OF HG WCI - WIND CHILL INDEX VSB - VISIBILITY IN MILES HX - HEAT INDEX TC - TEMPERATURE IN CELSIUS VRB - VARIABLE WIND DIRECTION N/A - NOT AVAILABLE

USA.gov is the U.S. government's official web portal to all federal, state and local government web resources and services.